Regional Weather Roundup
Issued by NWS Charleston, SC

Current Version | Previous Version | Text Only | Print | Product List | Glossary Off
Versions: 1 2 3 4 5 6 7 8 9 10 11 12 13 14 15 16 17 18 19 20 21 22 23 24 25 26 27 28 29 30 31 32 33 34 35 36 37 38 39 40 41 42 43 44 45 46 47 48 49 50
000 ASUS42 KCHS 050127 RWRCHS REGIONAL WEATHER ROUNDUP NATIONAL WEATHER SERVICE CHARLESTON SC 800 PM EST SUN DEC 04 2016 NOTE: "FAIR" INDICATES FEW OR NO CLOUDS BELOW 12,000 FEET WITH NO SIGNIFICANT WEATHER AND/OR OBSTRUCTIONS TO VISIBILITY. NOT ALL STATIONS ARE QUALITY CONTROLLED. USE DATA WITH CAUTION... ESPECIALLY DEWPOINT OBSERVATIONS. SCZ027-030-031-034>040-042>050-050200- ...SOUTHEAST SOUTH CAROLINA... CITY SKY/WX TMP DP RH WIND PRES REMARKS N CHARLESTON CLOUDY 57 51 80 NE6 30.07R WATERFRONT PRK N/A 59 56 89 NE7 30.04F MOUNT PLEASANT MOCLDY 59 55 88 CALM 30.07S JOHNS ISLAND CLOUDY 61 57 88 CALM 30.06R PINOPOLIS N/A 50 45 81 E9 30.00F MONCKS CORNER CLOUDY 48 43 81 NE6 30.08S SUMMERVILLE CLOUDY 50 45 81 N5 30.09S BEAUFORT MCAS CLOUDY 59 54 83 NE6 30.06R BEAUFORT ARPT CLOUDY 59 55 88 NE6 30.05R HILTON HEAD IS CLOUDY 63 59 88 N3 30.06 WALTERBORO CLOUDY 54 54 100 NE5 30.07F ALLENDALE CLOUDY 50 48 93 VRB5 30.05S ...SOUTHERN MIDLANDS AND PEE DEE... CITY SKY/WX TMP DP RH WIND PRES REMARKS GEORGETOWN CLOUDY 57 52 82 E12G22 30.09F KINGSTREE DRIZZLE 45 41 87 NE3 30.10F ORANGEBURG CLOUDY 45 44 97 E7 30.08S BARNWELL NOT AVBL AIKEN DRIZZLE 43 41 93 NE7 30.09S MANNING NOT AVBL COLUMBIA LGT RAIN 46 43 89 E8 30.09S FOG SUMTER LGT RAIN 45 43 93 E7 30.07S FLORENCE LGT RAIN 45 43 93 E7 30.11F MYRTLE BEACH NOT AVBL N MYRTLE BEACH LGT RAIN 48 46 93 NE7 30.12S $$ GAZ063-065-086>088-099>101-113>116-118-119-134>141-150-050200- ...SOUTHEAST GEORGIA... CITY SKY/WX TMP DP RH WIND PRES REMARKS SAVANNAH ARPT CLOUDY 61 55 81 NE5 30.04R HUNTER AAF CLOUDY 63 63 100 CALM 30.01S FORT STEWART CLOUDY 63 57 82 CALM 30.00F STATESBORO CLOUDY 56 51 83 E3 30.03S SYLVANIA CLOUDY N/A N/A N/A E6 30.04F CLAXTON CLOUDY 60 58 92 NE5 30.02S ...CSRA...CENTRAL AND FAR SOUTHEAST GEORGIA... CITY SKY/WX TMP DP RH WIND PRES REMARKS THOMSON CLOUDY 47 47 100 CALM 30.11F AUGUSTA-BUSH RAIN 48 45 89 NE5 30.06F FOG AUGUSTA-DANIEL LGT RAIN 47 43 86 NE7 30.07S SWAINSBORO CLOUDY 52 46 82 NE6 30.03F VIDALIA CLOUDY 61 59 94 NE5 30.02S EASTMAN LGT RAIN 55 42 63 CALM 30.04S HAZLEHURST FAIR 64 61 90 E5 29.99S ALMA MOCLDY 64 61 90 E5 29.99S WAYCROSS MOCLDY 71 67 87 S8 30.00S JESUP FAIR 64 64 100 SE3 30.00F BAXLEY MOCLDY 63 63 100 E3 29.99F BRUNSWICK MOCLDY 70 66 88 S5 30.03R SAINT SIMONS PTCLDY 67 64 90 SE8 30.01S $$ SCZ027-028-034-036>038-045-046-048>050-GAZ119-141-050200- ...LAKE AND SUPPLEMENTAL COASTAL OBSERVATIONS... STATION/POSITION TIME TEMP WIND PRES WAVE SWELL AIR SEA DIR/SP/G HT/PER HT/PER/DIR (UTC) (F) (DEG/KT/KT) (MB) (FT/S) (FT/S/D) WINYAH BAY 0045 58 80/ 12 1018.0F LAKE MURRAY 0020 45 60/ 3/ 7 1018.6 ACE BASIN NERRS 0045 58 30/ 3 1017.0S FORT PULASKI 0100 63 62 110/ 4/ 4 1017.4 SAPELO ISLAND 0100 68 160/ 7 1016.0 $$ ANZ835-935-AMZ111-154-330-350-352-354-370-450-454-472-050200- ...C-MAN AND BUOY OBSERVATIONS... STATION/POSITION TIME TEMP WIND PRES WAVE SWELL AIR SEA DIR/SP/G HT/PER HT/PER/DIR (UTC) (F) (DEG/KT/KT) (MB) (FT/S) (FT/S/D) BUOY 41004 0050 71 75 150/ 17/ 21 1017.3F 4/ 5 2/100/ 8 BUOY 41008 0050 68 65 140/ 10/ 12 1016.1F 4/ 5 2/ 50/ 7 FOLLY BEACH CMAN 0100 62 50/ 7/ 9 1018.2S CAPERS NEARSHORE 0008 61 61 60/ 14/ 19 1017.6F FRIPP NEARSHORE 0108 65 62 80/ 2/ 4 1017.0R STATION/POSITION TIME TEMP WIND PRES WAVE SWELL AIR SEA DIR/SP/G HT/PER HT/PER/DIR (UTC) (F) (DEG/KT/KT) (MB) (FT/S) (FT/S/D) 5E ST. MARYS GA 0100 66 N/A 3/ 5 FRYING PAN BUOY 0100 65 74 90/ 17/ 21 1019.1 BUOY 41025 0050 58 75 70/ 4/ 8 1022.2F 3/ 9 3/ 40/ 9 CAPE LOOKOUT NC 0100 53 50/ 13/ 13 1021.1F BUOY 41002 0050 66 73 120/ 6/ 8 1022.2R 4/ 9 3/ 10/ 9 BUOY 41010 NOT AVBL ST AUGUSTINE FL 0100 70 68 150/ 16/ 18 1017.8R $$

USA.gov is the U.S. government's official web portal to all federal, state and local government web resources and services.